time_stamp(utc),avg(mph),gust(mph),direction(deg),12m_air_temp(f),sonic_u(cm/s),sonic_v(cm/s),sonic_w(cm/s),pressure,2m_air_temp(f),pyranometer(W/m^2)
"2020-03-23 00:02:45+00",19.1,24.1,,40,-156,1711,-926,1036.4,40.1,0
"2020-03-23 00:07:45+00",21.5,23.5,,40,613,619,-299,1036.45,40.1,0
"2020-03-23 00:12:45+00",21.6,25.6,,40,529,653,-390,1036.55,40.1,0
"2020-03-23 00:17:45+00",19.5,23.5,,40,220,1157,-565,1036.56,40.1,0
"2020-03-23 00:22:45+00",19.9,21.9,,39.9,764,264,-90,1036.61,40,0
"2020-03-23 00:27:45+00",19.4,21.4,,40,354,784,-448,1036.55,40,0
"2020-03-23 00:32:45+00",19.9,21.9,,40.1,409,798,-417,1036.52,40.1,0
"2020-03-23 00:37:45+00",17.0,19.0,,40.2,61,1236,-600,1036.7,40.1,0
"2020-03-23 00:42:45+00",18.2,21.2,,40.1,213,875,-530,1036.72,40.1,0
"2020-03-23 00:47:45+00",22.1,24.1,,40.1,631,422,-299,1036.7,40,0
"2020-03-23 00:52:45+00",21.1,23.1,,40.1,713,316,-205,1036.77,40,0
"2020-03-23 00:57:45+00",21.9,24.9,,40.1,906,116,-37,1036.92,40,0
"2020-03-23 01:02:45+00",18.6,21.6,,40.1,731,66,-68,1036.98,40,0
"2020-03-23 01:07:45+00",20.2,23.2,,40.2,807,167,-58,1036.91,40,0
"2020-03-23 01:12:45+00",18.4,21.4,,40.1,534,349,-244,1036.77,40,0
"2020-03-23 01:17:45+00",24.2,26.2,,40.1,1082,52,28,1036.75,40,0
"2020-03-23 01:22:45+00",22.4,24.4,,40.1,950,108,-4,1036.84,40,0
"2020-03-23 01:27:45+00",20.7,22.7,,40.2,670,359,-221,1036.75,40.1,0
"2020-03-23 01:32:45+00",20.1,23.1,,40.2,643,457,-207,1036.87,40.1,0
"2020-03-23 01:37:45+00",22.1,25.1,,40.3,582,621,-353,1036.82,40.2,0
"2020-03-23 01:42:45+00",21.4,25.4,,40.2,466,626,-409,1036.74,40.1,0
"2020-03-23 01:47:45+00",19.6,22.6,,40.3,-13,1411,-805,1036.72,40.2,0
"2020-03-23 01:52:45+00",17.4,20.4,,40.4,-96,1497,-777,1036.81,40.2,0
"2020-03-23 01:57:45+00",23.1,26.1,,40.4,804,368,-191,1036.59,40.3,0
"2020-03-23 02:02:45+00",23.3,26.3,,40.4,934,274,-53,1036.38,40.3,0
"2020-03-23 02:07:45+00",23.0,27.0,,40.3,800,314,-171,1036.22,40.3,0
"2020-03-23 02:12:45+00",24.3,27.3,,40.3,982,108,-64,1036.07,40.2,0
"2020-03-23 02:17:45+00",24.3,28.3,,40.2,947,108,-120,1036,40.2,0
"2020-03-23 02:22:45+00",21.0,25.0,,40.3,406,839,-460,1035.97,40.2,0
"2020-03-23 02:27:45+00",24.6,26.6,,40.3,1057,14,-7,1035.82,40.3,0
"2020-03-23 02:32:45+00",21.0,24.0,,40.3,605,358,-247,1035.85,40.2,0
"2020-03-23 02:37:45+00",22.8,25.8,,40.4,735,425,-234,1035.91,40.3,0
"2020-03-23 02:42:45+00",22.3,28.3,,40.3,850,61,-93,1035.8,40.2,0
"2020-03-23 02:47:45+00",22.6,26.6,,40.3,759,271,-208,1035.92,40.2,0
"2020-03-23 02:52:45+00",22.6,26.6,,40.4,839,177,-135,1036,40.3,0
"2020-03-23 02:57:45+00",20.0,23.0,,40.6,279,834,-539,1035.99,40.5,0
"2020-03-23 03:02:45+00",21.7,23.7,,40.5,866,65,-83,1036.05,40.4,0
"2020-03-23 03:07:45+00",21.8,23.8,,40.6,731,205,-216,1035.98,40.5,0
"2020-03-23 03:12:45+00",21.4,25.4,,40.6,800,26,-119,1035.91,40.5,0
"2020-03-23 03:17:45+00",23.9,26.9,,40.6,1064,-95,26,1036.03,40.5,0
"2020-03-23 03:22:45+00",20.4,23.4,,40.7,759,39,-114,1036.02,40.5,0
"2020-03-23 03:27:45+00",19.7,22.7,,40.7,841,-25,13,1036,40.6,0
"2020-03-23 03:32:45+00",23.9,28.9,,40.7,989,-31,-74,1035.83,40.6,0
"2020-03-23 03:37:45+00",21.2,26.2,,40.7,869,-71,-48,1035.71,40.6,0
"2020-03-23 03:42:45+00",19.1,22.1,,40.8,779,-129,-38,1035.72,40.7,0
"2020-03-23 03:47:45+00",19.9,22.9,,40.8,800,-48,-58,1035.73,40.7,0
"2020-03-23 03:52:45+00",23.0,25.0,,40.7,938,-52,-82,1035.66,40.6,0
"2020-03-23 03:57:45+00",24.5,26.5,,40.7,963,-21,-110,1035.62,40.6,0
"2020-03-23 04:02:45+00",21.4,26.4,,40.8,870,-5,-54,1035.72,40.6,0
"2020-03-23 04:07:45+00",23.5,26.5,,40.9,918,-43,-91,1035.82,40.7,0
"2020-03-23 04:12:45+00",19.2,23.2,,40.8,820,-174,-26,1035.92,40.6,0
"2020-03-23 04:17:45+00",22.4,25.4,,40.8,981,-72,39,1035.68,40.7,0
"2020-03-23 04:22:45+00",21.3,24.3,,40.7,865,-205,-56,1035.81,40.7,0
"2020-03-23 04:27:45+00",23.7,27.7,,40.8,997,-72,-36,1035.58,40.6,0
"2020-03-23 04:32:45+00",21.5,25.5,,40.8,950,-35,3,1035.45,40.7,0
"2020-03-23 04:37:45+00",19.9,22.9,,40.8,875,-59,11,1035.3,40.6,0
"2020-03-23 04:42:45+00",20.6,24.6,,40.8,920,-15,51,1035.41,40.6,0
"2020-03-23 04:47:45+00",19.1,21.1,,40.8,861,-15,39,1035.25,40.6,0
"2020-03-23 04:52:45+00",23.5,26.5,,40.9,1051,-119,15,1035.16,40.6,0
"2020-03-23 04:57:45+00",20.1,24.1,,41,868,-40,2,1035.2,40.7,0
"2020-03-23 05:02:45+00",20.5,24.5,,41,884,-48,13,1035.19,40.7,0
"2020-03-23 05:07:45+00",20.8,22.8,,41,888,-39,-25,1035.11,40.8,0
"2020-03-23 05:12:45+00",20.7,24.7,,41.1,929,-79,35,1035.03,40.9,0
"2020-03-23 05:17:45+00",20.8,23.8,,41.1,885,-85,-26,1034.87,40.9,0
"2020-03-23 05:22:45+00",17.5,23.5,,41.2,740,-42,1,1035.04,41,0
"2020-03-23 05:27:45+00",21.3,25.3,,41.2,963,-52,17,1034.98,40.9,0
"2020-03-23 05:32:45+00",23.1,26.1,,41.2,1037,-58,36,1034.73,40.9,0
"2020-03-23 05:37:45+00",24.1,30.1,,41.2,1026,-29,-36,1034.28,41,0
"2020-03-23 05:42:45+00",23.7,26.7,,41.2,914,20,-113,1034.35,41,0
"2020-03-23 05:47:45+00",20.9,23.9,,41.4,824,-2,-60,1034.49,41.1,0
"2020-03-23 05:52:45+00",23.6,25.6,,41.4,819,140,-210,1034.64,41.2,0
"2020-03-23 05:57:45+00",18.8,21.8,,41.4,822,-45,22,1034.43,41.2,0
"2020-03-23 06:02:45+00",20.4,23.4,,41.4,749,68,-109,1034.11,41.2,0
"2020-03-23 06:07:45+00",22.4,26.4,,41.5,998,-78,42,1034.23,41.3,0
"2020-03-23 06:12:45+00",21.4,25.4,,41.5,872,57,-73,1034,41.4,0
"2020-03-23 06:17:45+00",24.5,27.5,,41.6,1041,-45,-40,1033.93,41.4,0
"2020-03-23 06:22:45+00",24.4,28.4,,41.6,1020,-13,-44,1033.96,41.4,0
"2020-03-23 06:27:45+00",20.7,23.7,,41.7,825,62,-74,1034.02,41.5,0
"2020-03-23 06:32:45+00",23.2,26.2,,41.9,905,96,-84,1033.45,41.5,0
"2020-03-23 06:37:45+00",21.4,25.4,,41.9,748,160,-183,1033.27,41.6,0
"2020-03-23 06:42:45+00",21.0,24.0,,41.9,818,98,-86,1033.22,41.6,0
"2020-03-23 06:47:45+00",20.2,23.2,,42,702,166,-170,1033.4,41.7,0
"2020-03-23 06:52:45+00",21.3,24.3,,42,733,171,-182,1033.04,41.8,0
"2020-03-23 06:57:45+00",22.1,24.1,,42.2,732,187,-214,1033.15,41.8,0
"2020-03-23 07:02:45+00",20.9,23.9,,42.3,705,56,-176,1033.11,41.9,0
"2020-03-23 07:07:45+00",20.5,22.5,,42.3,599,291,-260,1032.97,42.1,0
"2020-03-23 07:12:45+00",23.9,26.9,,42.4,571,532,-419,1032.75,42.1,0
"2020-03-23 07:17:45+00",20.1,23.1,,42.5,1219,-1038,417,1032.94,42.2,0
"2020-03-23 07:22:45+00",17.4,20.4,,42.4,503,406,-214,1032.97,42.2,0
"2020-03-23 07:27:45+00",18.5,22.5,,42.5,389,616,-385,1032.71,42.2,0
"2020-03-23 07:32:45+00",20.3,23.3,,42.4,751,290,-109,1032.54,42.2,0
"2020-03-23 07:37:45+00",18.3,21.3,,42.4,345,785,-415,1032.68,42.2,0
"2020-03-23 07:42:45+00",19.3,22.3,,42.5,214,1018,-594,1032.76,42.2,0
"2020-03-23 07:47:45+00",20.1,23.1,,42.5,274,1088,-550,1032.73,42.3,0
"2020-03-23 07:52:45+00",19.0,21.0,,42.5,324,897,-471,1032.73,42.2,0
"2020-03-23 07:57:45+00",19.6,22.6,,42.5,527,588,-298,1032.47,42.2,0
"2020-03-23 08:02:45+00",20.0,23.0,,42.6,537,640,-273,1032.36,42.3,0
"2020-03-23 08:07:45+00",17.7,20.7,,42.5,791,132,54,1032.45,42.3,0
"2020-03-23 08:12:45+00",20.2,23.2,,42.5,920,11,35,1032.35,42.2,0
"2020-03-23 08:17:45+00",21.3,23.3,,42.5,953,-6,44,1032.23,41.9,0
"2020-03-23 08:22:45+00",18.1,22.1,,42.4,814,49,47,1032.08,41.8,0
"2020-03-23 08:27:45+00",18.6,21.6,,42.5,820,-18,13,1032.11,41.6,0
"2020-03-23 08:32:45+00",21.4,27.4,,42.2,944,105,51,1032.03,41.4,0
"2020-03-23 08:37:45+00",21.2,24.2,,42,939,-17,52,1031.76,41.1,0
"2020-03-23 08:42:45+00",22.7,24.7,,41.7,2556,-204,-733,1031.36,40.7,0
"2020-03-23 08:57:45+00",22.8,25.8,,41.9,954,10,82,1031.18,40.8,0
"2020-03-23 09:02:45+00",18.9,21.9,,41.8,803,48,58,1031.14,40.7,0
"2020-03-23 09:07:45+00",20.2,23.2,,41.9,850,-111,60,1031.14,40.8,0
"2020-03-23 09:12:45+00",21.8,24.8,,41.9,911,-101,89,1030.97,40.9,0
"2020-03-23 09:17:45+00",21.8,24.8,,42.1,924,-36,71,1030.59,41.1,0
"2020-03-23 09:22:45+00",23.1,25.1,,42.1,1044,-100,28,1030.42,41.3,0
"2020-03-23 09:27:45+00",23.9,26.9,,42.1,1054,-13,55,1030.79,41.2,0
"2020-03-23 09:32:45+00",25.3,28.3,,42.1,1109,14,59,1030.71,41.3,0
"2020-03-23 09:37:45+00",24.8,27.8,,42,1085,-133,47,1030.47,41.4,0
"2020-03-23 09:42:45+00",25.3,30.3,,41.9,1120,33,41,1030.45,41.4,0
"2020-03-23 09:47:45+00",23.2,28.2,,41.8,1021,-5,67,1030.39,41.3,0
"2020-03-23 09:52:45+00",28.3,32.3,,41.7,689,-216,315,1030.09,41.2,0
"2020-03-23 09:57:45+00",24.9,28.9,,41.5,958,-105,124,1030.13,41.1,0
"2020-03-23 10:02:45+00",24.8,28.8,,41.5,879,-118,142,1030.07,41,0
"2020-03-23 10:07:45+00",27.5,31.5,,41.5,-199,-215,731,1029.98,41.1,0
"2020-03-23 10:12:45+00",23.7,25.7,,41.4,860,-23,170,1029.97,41,0
"2020-03-23 10:17:45+00",24.6,30.6,,41.4,1163,-5,19,1029.92,41,0
"2020-03-23 10:22:45+00",25.4,29.4,,41.6,1099,-169,50,1029.83,41.1,0
"2020-03-23 10:27:45+00",24.6,29.6,,41.6,1037,-101,73,1029.97,41.2,0
"2020-03-23 10:32:45+00",28.6,31.6,,41.6,1274,-107,37,1029.87,41.2,0
"2020-03-23 10:37:45+00",23.4,27.4,,41.7,1031,-87,63,1029.77,41.3,0
"2020-03-23 10:42:45+00",26.9,29.9,,41.7,1211,-74,19,1029.77,41.4,0
"2020-03-23 10:47:45+00",23.3,27.3,,41.8,1137,-112,-12,1029.64,41.4,0
"2020-03-23 10:52:45+00",25.4,27.4,,41.8,1481,-99,-129,1029.67,41.3,0
"2020-03-23 10:57:45+00",29.1,33.1,,41.6,1349,-256,-34,1029.48,41.3,0
"2020-03-23 11:02:45+00",27.3,31.3,,41.8,1592,-114,-171,1029.61,41.4,0
"2020-03-23 11:07:45+00",25.3,28.3,,41.8,1869,-132,-364,1029.51,41.4,0
"2020-03-23 11:12:45+00",28.6,31.6,,41.9,1549,-135,-123,1029.38,41.4,0
"2020-03-23 11:17:45+00",26.0,29.0,,41.7,2114,-133,-484,1029.49,41.5,0
"2020-03-23 11:22:45+00",28.7,32.7,,41.8,1438,-148,-66,1029.34,41.4,0
"2020-03-23 11:27:45+00",24.8,28.8,,42.1,1353,-139,-126,1029.49,41.6,0
"2020-03-23 11:32:45+00",26.5,31.5,,42.1,1727,-77,-263,1029.14,41.6,0
"2020-03-23 11:37:45+00",24.5,28.5,,42,1499,-186,-204,1029.12,41.7,0
"2020-03-23 11:42:45+00",26.5,29.5,,42.1,1892,-340,-575,1029.1,41.7,0
"2020-03-23 11:47:45+00",27.1,30.1,,42.1,-642,-3236,-1670,1029.15,41.8,0
"2020-03-23 11:52:45+00",24.4,28.4,,42.3,1312,-1188,-926,1029.16,41.8,0
"2020-03-23 11:57:45+00",24.2,29.2,,42.4,1440,-216,-271,1029.16,41.9,0
"2020-03-23 12:02:45+00",25.0,30.0,,42.4,1564,-768,-877,1029.01,42,0
"2020-03-23 12:07:45+00",26.7,32.7,,42.2,6,-2391,-1389,1028.81,42,0
"2020-03-23 12:12:45+00",24.9,27.9,,42.5,1058,-486,-324,1028.72,42.1,0
"2020-03-23 12:17:45+00",24.6,29.6,,42.7,1391,-111,-164,1028.71,42.2,0
"2020-03-23 12:22:45+00",23.9,28.9,,42.8,1802,-66,-371,1028.52,42.3,0
"2020-03-23 12:27:45+00",23.2,27.2,,43,1307,-69,-156,1028.42,42.3,0
"2020-03-23 12:32:45+00",27.0,31.0,,43,2172,-384,-688,1028.26,42.4,1
"2020-03-23 12:37:45+00",28.1,30.1,,43.1,2345,-66,-580,1028.31,42.4,0
"2020-03-23 12:42:45+00",24.3,28.3,,43.2,2807,48,-808,1028.32,42.6,0
"2020-03-23 12:47:45+00",25.9,28.9,,43.3,1266,-83,-28,1028.11,42.6,0
"2020-03-23 12:52:45+00",27.2,29.2,,43.4,2778,-100,-847,1028.19,42.6,0
"2020-03-23 12:57:45+00",21.0,23.0,,43.5,923,35,49,1028.21,42.8,0.1
"2020-03-23 13:02:45+00",24.1,28.1,,43.6,1648,-351,-554,1028.24,42.9,0
"2020-03-23 13:07:45+00",26.0,30.0,,43.6,1281,-252,-237,1027.94,42.9,0.5
"2020-03-23 13:12:45+00",26.6,31.6,,43.6,1935,-201,-461,1027.71,43,0
"2020-03-23 13:17:45+00",25.7,28.7,,43.7,2091,14,-601,1027.81,43,0
"2020-03-23 13:22:45+00",28.8,31.8,,43.7,1154,212,-739,1027.72,43,0
"2020-03-23 13:27:45+00",24.1,27.1,,43.7,829,-158,-385,1027.73,43.1,0.1
"2020-03-23 13:32:45+00",26.1,32.1,,43.5,2191,31,-582,1027.37,43.1,2.2
"2020-03-23 13:37:45+00",26.8,29.8,,43.4,1895,1793,-1679,1027.21,43.2,0.6
"2020-03-23 13:42:45+00",27.7,29.7,,43.4,2065,-432,-1637,1026.84,43.3,4.8
"2020-03-23 13:47:45+00",21.9,23.9,,43.4,1326,-44,-208,1026.7,43.3,14.4
"2020-03-23 13:52:45+00",25.8,29.8,,43.3,1981,-444,-818,1026.56,43.4,1.4
"2020-03-23 13:57:45+00",24.2,27.2,,43.4,1744,299,-1092,1026.57,43.4,0
"2020-03-23 14:02:45+00",24.9,27.9,,43.4,1390,-791,-863,1026.57,43.4,0
"2020-03-23 14:07:45+00",24.2,29.2,,43.5,1876,-667,-928,1026.45,43.4,0
"2020-03-23 14:12:45+00",27.0,30.0,,43.4,2331,-681,-1161,1026.22,43.5,8.1
"2020-03-23 14:17:45+00",26.2,29.2,,43.5,2191,-495,-923,1026.11,43.6,10.9
"2020-03-23 14:22:45+00",23.7,25.7,,43.6,1262,-677,-674,1025.82,43.7,14
"2020-03-23 14:27:45+00",28.2,30.2,,43.5,1300,-1640,-1391,1025.57,43.7,6.3
"2020-03-23 14:32:45+00",29.7,33.7,,43.4,1710,-2179,-2015,1025.35,43.7,0.1
"2020-03-23 14:37:45+00",26.9,29.9,,43.5,2254,-182,-810,1025.42,43.6,0
"2020-03-23 14:42:45+00",21.7,25.7,,43.5,2069,93,-546,1025.71,43.6,0
"2020-03-23 14:47:45+00",24.8,26.8,,43.5,499,-1720,-1699,1025.87,43.6,0
"2020-03-23 14:52:45+00",21.9,24.9,,43.6,839,-653,-600,1025.99,43.6,0
"2020-03-23 14:57:45+00",23.5,25.5,,43.6,716,-1716,-1407,1025.74,43.7,0
"2020-03-23 15:02:45+00",23.6,26.6,,43.7,1622,-884,-1068,1025.49,43.8,0.2
"2020-03-23 15:07:45+00",22.4,27.4,,43.8,1186,-525,-580,1025.28,43.8,1.3
"2020-03-23 15:12:45+00",21.6,27.6,,43.8,843,-718,-553,1025,43.9,0.1
"2020-03-23 15:17:45+00",20.8,24.8,,43.8,1205,101,-122,1024.87,43.9,0.1
"2020-03-23 15:22:45+00",20.6,24.6,,43.9,738,-151,-169,1024.8,44,0.8
"2020-03-23 15:27:45+00",25.1,29.1,,44,1259,-748,-806,1024.64,44.1,0.1
"2020-03-23 15:32:45+00",23.4,25.4,,44.1,1618,-721,-1010,1024.63,44.1,0
"2020-03-23 15:37:45+00",21.0,24.0,,44.3,1342,82,-226,1024.36,44.2,0.8
"2020-03-23 15:42:45+00",18.9,21.9,,44.4,831,131,45,1024.28,44.3,3.5
"2020-03-23 15:47:45+00",22.0,26.0,,44.6,1851,100,-462,1024.01,44.4,3
"2020-03-23 15:52:45+00",20.0,25.0,,44.8,912,129,7,1023.87,44.5,0.3
"2020-03-23 15:57:45+00",22.5,25.5,,44.9,1305,-374,-592,1023.63,44.6,3.3
"2020-03-23 16:02:45+00",21.0,24.0,,45,1036,11,-193,1023.7,44.7,1.9
"2020-03-23 16:07:45+00",17.1,19.1,,45.1,746,139,42,1023.77,44.7,0.3
"2020-03-23 16:12:45+00",16.1,22.1,,45.2,679,247,36,1023.93,44.8,0
"2020-03-23 16:17:45+00",17.7,21.7,,45.2,747,309,4,1023.85,44.8,0
"2020-03-23 16:22:45+00",14.6,16.6,,45.3,608,237,63,1023.66,44.9,0.6
"2020-03-23 16:27:45+00",19.8,22.8,,45.2,948,155,-135,1023.32,45,0.2
"2020-03-23 16:32:45+00",16.5,19.5,,45.3,729,160,49,1023.07,45,2.4
"2020-03-23 16:37:45+00",19.4,24.4,,45.4,606,-629,-496,1022.84,45.1,12.4
"2020-03-23 16:42:45+00",20.8,22.8,,45.4,896,-415,-487,1022.61,45.2,14.5
"2020-03-23 16:47:45+00",20.7,23.7,,45.4,654,-423,-382,1022.44,45.3,18.6
"2020-03-23 16:52:45+00",21.7,25.7,,45.4,792,-729,-682,1022.11,45.4,15.2
"2020-03-23 16:57:45+00",20.5,22.5,,45.5,777,-467,-449,1021.99,45.4,3.5
"2020-03-23 17:02:45+00",22.5,26.5,,45.6,1450,-392,-610,1021.89,45.4,5.5
"2020-03-23 17:07:45+00",19.1,22.1,,45.6,850,164,-12,1021.77,45.5,3.7
"2020-03-23 17:12:45+00",17.7,19.7,,45.6,762,158,39,1021.64,45.5,3
"2020-03-23 17:17:45+00",13.8,15.8,,45.6,587,180,35,1021.39,45.6,1.3
"2020-03-23 17:22:45+00",15.7,17.7,,45.7,634,221,0,1021.39,45.6,0.5
"2020-03-23 17:27:45+00",17.6,20.6,,45.8,773,74,3,1021.03,45.7,2.8
"2020-03-23 17:32:45+00",16.1,18.1,,45.9,705,122,73,1020.7,45.8,3.3
"2020-03-23 17:37:45+00",16.3,19.3,,46.1,703,130,35,1020.58,45.9,0
"2020-03-23 17:42:45+00",15.2,17.2,,46.2,646,193,19,1020.53,46,0.2
"2020-03-23 17:47:45+00",14.1,16.1,,46.2,611,197,26,1020.22,46.1,0.1
"2020-03-23 17:52:45+00",14.0,17.0,,46.4,590,227,29,1020.08,46.1,0.1
"2020-03-23 17:57:45+00",12.8,15.8,,46.5,539,201,38,1019.82,46.3,1.1
"2020-03-23 18:02:45+00",14.6,17.6,,46.8,636,116,65,1019.52,46.5,1.9
"2020-03-23 18:07:45+00",15.1,18.1,,46.7,656,140,48,1019.46,46.5,0.3
"2020-03-23 18:12:45+00",15.3,16.3,,46.7,669,84,45,1019.3,46.5,0.9
"2020-03-23 18:17:45+00",17.4,20.4,,46.7,776,55,38,1018.65,46.5,2.5
"2020-03-23 18:22:45+00",17.9,19.9,,46.8,801,63,26,1018.33,46.6,1.4
"2020-03-23 18:27:45+00",18.6,21.6,,47,819,97,44,1018.11,46.6,2.2
"2020-03-23 18:32:45+00",19.0,23.0,,47,935,-18,-19,1017.9,46.8,1.3
"2020-03-23 18:37:45+00",21.8,25.8,,47.3,943,-210,-10,1017.63,46.8,4.5
"2020-03-23 18:42:45+00",18.3,21.3,,47.3,808,-3,50,1017.2,47,2.2
"2020-03-23 18:47:45+00",23.5,26.5,,47.6,1060,-349,-56,1016.8,47.2,24.4
"2020-03-23 18:52:45+00",28.2,35.2,,48.4,1841,-156,-338,1016.2,47.8,9.1
"2020-03-23 18:57:45+00",22.7,26.7,,47.7,2316,-154,-679,1015.89,47.4,8.1
"2020-03-23 19:02:45+00",26.5,30.5,,48.2,3899,-237,-1236,1015.41,47.8,12.3
"2020-03-23 19:07:45+00",28.1,34.1,,48.2,2179,-222,-524,1014.97,47.7,20.5
"2020-03-23 19:12:45+00",21.9,24.9,,48.2,993,-112,41,1015.21,47.9,9.2
"2020-03-23 19:17:45+00",23.6,26.6,,48.3,1164,-99,-16,1015.07,47.9,9.8
"2020-03-23 19:22:45+00",21.5,27.5,,48.1,971,-177,22,1015.12,47.8,5.7
"2020-03-23 19:27:45+00",24.9,28.9,,48.2,1187,-200,-23,1014.84,47.8,0.6
"2020-03-23 19:32:45+00",20.1,22.1,,48.2,879,-3,44,1014.85,47.8,0
"2020-03-23 19:37:45+00",17.4,20.4,,48,757,72,36,1014.8,47.8,0
"2020-03-23 19:42:45+00",16.3,20.3,,48.3,732,-37,19,1014.65,47.8,0
"2020-03-23 19:47:45+00",13.5,16.5,,48.3,590,70,20,1014.47,48,0
"2020-03-23 19:52:45+00",15.0,17.0,,48.3,690,8,24,1014.11,48,1.2
"2020-03-23 19:57:45+00",15.3,19.3,,48.4,686,-70,30,1014.03,48.1,0
"2020-03-23 20:02:45+00",15.2,18.2,,48.5,701,-21,5,1013.86,48.2,0
"2020-03-23 20:07:45+00",13.0,15.0,,48.7,566,-57,24,1013.89,48.3,0
"2020-03-23 20:12:45+00",12.7,14.7,,48.8,585,-46,-8,1013.91,48.4,0
"2020-03-23 20:17:45+00",10.3,11.3,,48.7,445,3,43,1013.65,48.4,0
"2020-03-23 20:22:45+00",12.1,15.1,,48.9,535,59,29,1013.69,48.5,0
"2020-03-23 20:27:45+00",10.0,11.0,,48.8,434,38,18,1013.59,48.5,0
"2020-03-23 20:32:45+00",7.9,8.9,,48.8,212,244,8,1013.46,48.5,0
"2020-03-23 20:37:45+00",10.3,13.3,,49,340,275,12,1013.36,48.7,0
"2020-03-23 20:42:45+00",8.9,9.9,,49,312,226,22,1013.32,48.8,0
"2020-03-23 20:47:45+00",10.6,12.6,,49,420,198,20,1013.04,48.8,0
"2020-03-23 20:52:45+00",10.1,12.1,,49.4,434,80,40,1013,49,1.5
"2020-03-23 20:57:45+00",11.4,13.4,,49.6,493,100,32,1012.66,49.3,12.3
"2020-03-23 21:02:45+00",8.3,10.3,,49.6,366,0,16,1012.81,49.4,0
"2020-03-23 21:07:45+00",3.8,4.8,,49.6,-182,47,39,1013.19,49.4,0
"2020-03-23 21:12:45+00",1.5,1.5,,49.7,12,40,2,1013.34,49.4,0
"2020-03-23 21:17:45+00",8.3,11.3,,50,467,-235,-119,1013.21,49.5,0
"2020-03-23 21:22:45+00",8.0,9.0,,50.7,244,-249,8,1013.07,50.2,0
"2020-03-23 21:27:45+00",9.0,10.0,,50.2,-338,201,31,1013.34,50.1,0
"2020-03-23 21:32:45+00",0.9,1.9,,49.8,7,2,5,1013.1,49.7,0
"2020-03-23 21:37:45+00",2.5,3.5,,50,-90,-53,8,1013.37,49.6,0
"2020-03-23 21:42:45+00",4.7,4.7,,50.2,-189,-42,7,1013.46,49.5,0
"2020-03-23 21:47:45+00",2.6,2.6,,50.4,-102,16,15,1013.25,49.5,0
"2020-03-23 21:52:45+00",0.6,0.6,,50.4,0,-7,13,1012.99,49.7,0
"2020-03-23 21:57:45+00",0.7,0.7,,50.4,-27,-1,2,1012.88,49.9,0
"2020-03-23 22:02:45+00",3.2,4.2,,50.3,-124,52,8,1012.96,50,0
"2020-03-23 22:07:45+00",5.1,6.1,,50.2,-174,130,16,1012.98,50,0
"2020-03-23 22:12:45+00",5.8,5.8,,50.3,-162,184,21,1012.83,49.8,0
"2020-03-23 22:17:45+00",7.5,7.5,,50.2,-187,263,20,1012.91,49.7,0
"2020-03-23 22:22:45+00",10.7,11.7,,49.8,-309,347,40,1013.07,49.4,0
"2020-03-23 22:27:45+00",13.4,14.4,,49.6,-375,436,43,1013.01,49.1,0
"2020-03-23 22:32:45+00",11.5,13.5,,49.9,-242,430,47,1012.8,49.2,0
"2020-03-23 22:37:45+00",11.2,12.2,,49.9,-102,480,18,1012.4,49.5,0
"2020-03-23 22:42:45+00",13.9,16.9,,49.5,598,217,-17,1012.32,49.4,0
"2020-03-23 22:47:45+00",16.3,18.3,,48.6,2703,-1101,103,1012.15,48.9,0
"2020-03-23 22:52:45+00",15.5,18.5,,48,1715,-1903,1281,1012.09,48.2,0
"2020-03-23 22:57:45+00",15.7,17.7,,47.6,-306,970,-203,1012.47,47.5,0
"2020-03-23 23:02:45+00",17.7,19.7,,47.4,61,784,-141,1012.48,47,0
"2020-03-23 23:07:45+00",19.4,21.4,,47.1,465,2279,-1462,1012.27,46.7,0
"2020-03-23 23:12:45+00",21.2,24.2,,46.9,384,1775,-997,1012.34,46.4,0
"2020-03-23 23:17:45+00",20.7,22.7,,46.6,456,983,-375,1012.44,46.1,0
"2020-03-23 23:22:45+00",17.6,19.6,,46.4,204,790,-178,1012.49,45.8,0
"2020-03-23 23:27:45+00",18.7,21.7,,46.2,-955,2107,-794,1012.62,45.6,0
"2020-03-23 23:32:45+00",16.6,18.6,,45.9,-2346,4027,-1801,1012.67,45.4,0
"2020-03-23 23:37:45+00",23.1,26.1,,45.6,-1265,2974,-1164,1012.66,44.9,0
"2020-03-23 23:42:45+00",19.3,22.3,,45.4,-829,1617,-486,1012.81,44.7,0
"2020-03-23 23:47:45+00",21.4,24.4,,45.2,-571,1570,-450,1012.87,44.6,0
"2020-03-23 23:52:45+00",16.3,21.3,,45.1,-655,1375,-413,1012.9,44.5,0
"2020-03-23 23:57:45+00",17.2,19.2,,45,-444,937,-117,1012.92,44.4,0
